Weather History for Provincetown, MA

Change the Weather History Date:

Tuesday, June 25, 2013

  Actual Average Record
Temperature  
Mean Temperature 74 °F -  
Max Temperature 84 °F 73 °F 87 °F (1956)
Min Temperature 64 °F 59 °F 57 °F (2011)
Cooling Degree Days 9    
Growing Degree Days 24 (Base 50)    
Moisture  
Dew Point 66 °F    
Average Humidity 81    
Maximum Humidity 94    
Minimum Humidity 58    
Precipitation  
Precipitation 0.00 in - - ()
Sea Level Pressure  
Sea Level Pressure 29.85 in    
Wind  
Wind Speed 10 mph (SW)    
Max Wind Speed 18 mph    
Max Gust Speed 24 mph    
Visibility 10 miles    
Events      
Averages and records for this station are not official NWS values.
T = Trace of Precipitation, MM = Missing Value Source: NWS Daily Summary

Daily Weather History Graph

Daily Weather History Graph

Search for Another Location

Airport:

Trip Planner

Search our weather history database for the weather conditions in past years. The results will help you decide how hot, cold, wet, or windy it might be!

Date:

Astronomy

Jun. 25, 2013 Rise Set
Actual Time 5:06 AM EDT 8:20 PM EDT
Civil Twilight 4:31 AM EDT 8:55 PM EDT
Nautical Twilight 3:47 AM EDT 9:39 PM EDT
Astronomical Twilight 2:53 AM EDT 10:33 PM EDT
Moon 10:00 PM EDT (6/25) 7:45 AM EDT (6/25)
Length of Visible Light 16h 23m
Length of Day
15h 14m
Waning Gibbous, 93% of the Moon is Illuminated
Jun 25
Waning Gibbous
Jun 30
Last Quarter
Jul 8
New
Jul 15
First Quarter
Jul 22
Full

Hourly Weather History & Observations

Time (EDT) Temp. Heat Index Dew Point Humidity Pressure Visibility Wind Dir Wind Speed Gust Speed Precip Events Conditions
12:15 AM 66.2 °F - 64.4 °F 94% 29.91 in 10.0 mi West 9.2 mph - N/A   Clear
12:35 AM 66.2 °F - 62.6 °F 88% 29.91 in 10.0 mi WSW 6.9 mph - N/A   Clear
12:55 AM 64.4 °F - 62.6 °F 94% 29.91 in 10.0 mi WSW 5.8 mph - N/A   Clear
1:15 AM 66.2 °F - 62.6 °F 88% 29.90 in 10.0 mi SW 5.8 mph - N/A   Clear
1:35 AM 64.4 °F - 62.6 °F 94% 29.90 in 10.0 mi SW 6.9 mph - N/A   Partly Cloudy
1:55 AM 64.4 °F - 62.6 °F 94% 29.91 in 10.0 mi WSW 9.2 mph - N/A   Clear
2:15 AM 66.2 °F - 64.4 °F 94% 29.91 in 10.0 mi WSW 11.5 mph - N/A   Partly Cloudy
2:35 AM 66.2 °F - 64.4 °F 94% 29.91 in 10.0 mi West 9.2 mph - N/A   Scattered Clouds
2:55 AM 66.2 °F - 64.4 °F 94% 29.90 in 10.0 mi West 8.1 mph - N/A   Partly Cloudy
3:15 AM 66.2 °F - 64.4 °F 94% 29.90 in 10.0 mi WSW 8.1 mph - N/A   Clear
3:35 AM 64.4 °F - 62.6 °F 94% 29.90 in 9.0 mi WSW 8.1 mph - N/A   Clear
3:55 AM 66.2 °F - 64.4 °F 94% 29.90 in 10.0 mi WSW 12.7 mph - N/A   Clear
4:15 AM 66.2 °F - 64.4 °F 94% 29.90 in 10.0 mi West 10.4 mph - N/A   Clear
4:35 AM 66.2 °F - 64.4 °F 94% 29.90 in 10.0 mi SW 11.5 mph - N/A   Clear
4:55 AM 66.2 °F - 62.6 °F 88% 29.90 in 10.0 mi SW 11.5 mph - N/A   Clear
5:15 AM 66.2 °F - 62.6 °F 88% 29.91 in 10.0 mi WSW 6.9 mph - N/A   Clear
5:35 AM 66.2 °F - 62.6 °F 88% 29.91 in 10.0 mi SW 8.1 mph - N/A   Mostly Cloudy
5:55 AM 66.2 °F - 64.4 °F 94% 29.91 in 10.0 mi WSW 6.9 mph - N/A   Mostly Cloudy
6:15 AM 66.2 °F - 64.4 °F 94% 29.91 in 10.0 mi SW 6.9 mph - N/A   Overcast
6:35 AM 66.2 °F - 64.4 °F 94% 29.91 in 10.0 mi WSW 6.9 mph - N/A   Partly Cloudy
6:55 AM 66.2 °F - 64.4 °F 94% 29.91 in 10.0 mi WSW 8.1 mph - N/A   Clear
7:15 AM 66.2 °F - 64.4 °F 94% 29.91 in 10.0 mi SW 6.9 mph - N/A   Clear
7:35 AM 66.2 °F - 64.4 °F 94% 29.91 in 10.0 mi WSW 9.2 mph - N/A   Clear
7:55 AM 68.0 °F - 64.4 °F 88% 29.91 in 10.0 mi WSW 8.1 mph - N/A   Clear
8:15 AM 68.0 °F - 64.4 °F 88% 29.91 in 10.0 mi SW 8.1 mph - N/A   Clear
8:35 AM 69.8 °F - 64.4 °F 83% 29.90 in 10.0 mi SW 9.2 mph - N/A   Clear
9:55 AM 73.4 °F - 66.2 °F 78% 29.90 in 10.0 mi SW 10.4 mph - N/A   Clear
10:15 AM 75.2 °F - 68.0 °F 78% 29.90 in 10.0 mi SW 10.4 mph - N/A   Clear
10:35 AM 75.2 °F - 68.0 °F 78% 29.89 in 10.0 mi SW 10.4 mph - N/A   Clear
10:55 AM 77.0 °F - 68.0 °F 74% 29.89 in 10.0 mi SSW 11.5 mph - N/A   Clear
11:15 AM 78.8 °F - 69.8 °F 74% 29.89 in 10.0 mi SW 12.7 mph - N/A   Clear
11:35 AM 78.8 °F - 69.8 °F 74% 29.89 in 10.0 mi SW 12.7 mph - N/A   Clear
11:55 AM 80.6 °F 83.9 °F 69.8 °F 70% 29.89 in 10.0 mi SW 10.4 mph - N/A   Clear
12:15 PM 80.6 °F 83.9 °F 69.8 °F 70% 29.89 in 10.0 mi SW 11.5 mph - N/A   Clear
12:35 PM 82.4 °F 85.4 °F 68.0 °F 62% 29.89 in 10.0 mi WSW 9.2 mph - N/A   Clear
12:55 PM 84.2 °F 88.4 °F 69.8 °F 62% 29.88 in 10.0 mi SW 11.5 mph - N/A   Clear
1:15 PM 84.2 °F 88.4 °F 69.8 °F 62% 29.87 in 10.0 mi SW 11.5 mph - N/A   Clear
1:35 PM 84.2 °F 88.4 °F 69.8 °F 62% 29.87 in 10.0 mi SW 11.5 mph - N/A   Clear
1:55 PM 84.2 °F 88.4 °F 69.8 °F 62% 29.86 in 10.0 mi SW 13.8 mph - N/A   Clear
2:15 PM 84.2 °F 88.4 °F 69.8 °F 62% 29.85 in 10.0 mi SW 11.5 mph - N/A   Clear
2:35 PM 84.2 °F 88.4 °F 69.8 °F 62% 29.84 in 10.0 mi SSW 11.5 mph - N/A   Clear
2:55 PM 84.2 °F 88.4 °F 69.8 °F 62% 29.83 in 10.0 mi SSW 11.5 mph - N/A   Clear
3:35 PM 82.4 °F 85.4 °F 68.0 °F 62% 29.82 in 10.0 mi SW 13.8 mph 20.7 mph N/A   Clear
3:55 PM 82.4 °F 84.6 °F 66.2 °F 58% 29.81 in 10.0 mi SSW 13.8 mph 23.0 mph N/A   Clear
4:15 PM 80.6 °F 82.7 °F 66.2 °F 61% 29.80 in 10.0 mi SSW 16.1 mph 20.7 mph N/A   Partly Cloudy
4:35 PM 80.6 °F 82.7 °F 66.2 °F 61% 29.79 in 10.0 mi SSW 17.3 mph 24.2 mph N/A   Partly Cloudy
4:55 PM 80.6 °F 82.7 °F 66.2 °F 61% 29.79 in 10.0 mi SSW 16.1 mph 23.0 mph N/A   Clear
5:15 PM 78.8 °F - 66.2 °F 65% 29.79 in 10.0 mi SW 18.4 mph 23.0 mph N/A   Clear
5:35 PM 78.8 °F - 66.2 °F 65% 29.79 in 10.0 mi SSW 16.1 mph 24.2 mph N/A   Clear
5:55 PM 75.2 °F - 66.2 °F 73% 29.79 in 10.0 mi SSW 15.0 mph - N/A   Clear
6:15 PM 75.2 °F - 66.2 °F 73% 29.79 in 10.0 mi SW 13.8 mph 18.4 mph N/A   Clear
6:35 PM 73.4 °F - 66.2 °F 78% 29.79 in 10.0 mi SSW 16.1 mph 19.6 mph N/A   Clear
6:55 PM 73.4 °F - 64.4 °F 73% 29.79 in 10.0 mi SSW 15.0 mph - N/A   Clear
7:15 PM 71.6 °F - 64.4 °F 78% 29.78 in 10.0 mi SSW 12.7 mph - N/A   Clear
7:35 PM 71.6 °F - 64.4 °F 78% 29.78 in 10.0 mi SSW 16.1 mph 20.7 mph N/A   Clear
7:55 PM 69.8 °F - 64.4 °F 83% 29.77 in 10.0 mi SSW 13.8 mph - N/A   Clear
8:15 PM 69.8 °F - 64.4 °F 83% 29.77 in 10.0 mi SSW 12.7 mph 19.6 mph N/A   Clear
8:35 PM 69.8 °F - 64.4 °F 83% 29.77 in 9.0 mi SSW 10.4 mph - N/A   Clear
8:55 PM 69.8 °F - 64.4 °F 83% 29.76 in 10.0 mi SSW 11.5 mph 17.3 mph N/A   Clear
9:15 PM 69.8 °F - 64.4 °F 83% 29.76 in 9.0 mi SSW 11.5 mph - N/A   Clear
9:35 PM 68.0 °F - 64.4 °F 88% 29.77 in 8.0 mi SSW 10.4 mph 16.1 mph N/A   Clear
9:55 PM 68.0 °F - 66.2 °F 94% 29.78 in 8.0 mi SSW 10.4 mph - N/A   Clear
10:15 PM 68.0 °F - 64.4 °F 88% 29.77 in 8.0 mi SSW 10.4 mph - N/A   Clear
10:35 PM 68.0 °F - 66.2 °F 94% 29.77 in 7.0 mi SSW 10.4 mph - N/A   Clear
10:55 PM 68.0 °F - 66.2 °F 94% 29.76 in 7.0 mi SW 10.4 mph - N/A   Clear
11:15 PM 68.0 °F - 66.2 °F 94% 29.76 in 8.0 mi SSW 11.5 mph - N/A   Clear
11:35 PM 68.0 °F - 66.2 °F 94% 29.76 in 7.0 mi SSW 11.5 mph - N/A   Mostly Cloudy
11:55 PM 66.2 °F - 64.4 °F 94% 29.76 in 6.0 mi SW 9.2 mph - N/A   Partly Cloudy